Location: *
(45.9500°N, 9.0833°E)
Time: 06:38:20
(UTC+00:00)

SR - Pass Details

Date: 23 June 2021
Orbit: 577 x 878 km, 66.7° (Epoch: 24 July)

Event Time Altitude Azimuth Distance (km) Brightness Sun altitude
Rises 17:26:50 0° 272° (W) 3,470 ? 16.5°
Reaches altitude 10° 17:30:26 10° 294° (WNW) 2,518 ? 15.9°
Maximum altitude 17:33:54 16° 330° (NNW) 2,099 ? 15.3°
Drops below altitude 10° 17:37:19 10° 7° (N) 2,452 ? 14.7°
Sets 17:40:46 0° 29° (NNE) 3,334 ? 14.2°
